ISS (PRICHAL)

Last updated on Thu Dec 23 2021 00:02:02 GMT+0000 (Coordinated Universal Time)

1 49499U 21111A 21356.57237003 .00006158 00000+0 11966-3 0 9990 2 49499 51.6432 131.2018 0004486 344.2938 73.5831 15.49045020317793

Satellite not in orbit

ISS (PRICHAL)